Regional Weather Roundup
Issued by NWS

Home | Current Version | Previous Version | Graphics & Text | Print | Product List | Glossary On
Versions: 1 2 3 4 5 6 7 8 9 10 11 12 13 14 15 16 17 18 19 20 21 22 23 24 25 26 27
000
ASUS45 KSLC 300110
RWRUT

UTAH REGIONAL WEATHER ROUNDUP
NATIONAL WEATHER SERVICE SALT LAKE CITY UT
700 PM MDT MON AUG 29 2016

UTZ001>011-023>025-300200-

NORTHERN UTAH

CITY           SKY/WX    TMP DP  RH WIND       PRES   REMARKS
BRIGHAM CITY     N/A     89  27  10 SW3       30.11F
HILL AFB       SUNNY     88  25  10 NW5       30.15F
LOGAN          MOSUNNY   86  36  16 NE3       30.12F
OGDEN          MOSUNNY   88  23   9 N5        30.12F
PROVO AIRPORT  MOSUNNY  N/A N/A N/A NW12      30.13F
SALT LAKE CITY PTSUNNY   90  33  13 N9        30.10F
VERNAL         CLEAR     83  30  14 N3        30.16S
WENDOVER       MOSUNNY   90  34  13 SE6       30.13S
HEBER CITY     PTSUNNY   82  32  16 CALM      30.19S
WEST JORDAN    SUNNY     85  34  16 NW9       30.15S

$$

UTZ012>022-026-027-300200-

SOUTHERN/CENTRAL UTAH

CITY           SKY/WX    TMP DP  RH WIND       PRES   REMARKS
BLANDING       MOCLDY    76  43  30 E8        30.31R
BRYCE CANYON   MOSUNNY   75  35  23 S5        30.37S
CEDAR CITY     NOT AVBL
DELTA          SUNNY     90  23   9 W9        30.13F
MILFORD        NOT AVBL
MOAB/CYNLANDS  PTCLDY    90  39  16 NE20      30.09S
PRICE          MOSUNNY   84  25  11 NE12      30.21S
ST GEORGE      MOCLDY    99  37  12 S6        29.97F HX  93

$$

REGIONAL REPORTS     COLORADO/ARIZONA

CITY           SKY/WX    TMP DP  RH WIND       PRES   REMARKS
CRAIG, CO      CLOUDY    76  33  21 N10G20    30.28S
GRAND JUNCTION CLOUDY    81  41  24 SE15      30.17S
RIFLE          CLOUDY    76  43  30 SE12      30.24R
MONTROSE       CLOUDY    74  43  32 NW10      30.27R
CORTEZ         CLOUDY    75  47  36 E5        30.24F
PAGE, AZ       SUNNY     90  34  13 E8        30.09F
GRAND CANYON   SUNNY     78  38  23 NE10      30.30S
KINGMAN        SUNNY     95  38  13 N12       30.00F HX  90
FLAGSTAFF      SUNNY     72  43  35 NE8       30.30F

$$

REGIONAL REPORTS    NEVADA/IDAHO/WYOMING

CITY           SKY/WX    TMP DP  RH WIND       PRES   REMARKS
LAS VEGAS, NV  MOSUNNY  103  28   7 N8        29.89F HX  96
ELY            MOSUNNY   84  21  10 CALM      30.23S
ELKO           MOSUNNY   91  17   6 W9        30.14S
POCATELLO, ID  CLOUDY    88  31  13 E6        30.14F
BURLEY         MOSUNNY   84  43  23 NE6       30.08F
EVANSTON, WY   SUNNY     79  21  11 E8        30.34S
ROCK SPRINGS   CLEAR     78  20  11 NE12      30.31S

$$




USA.gov is the U.S. government's official web portal to all federal, state and local government web resources and services.